STARLINK-4655, 53613

Orbit data source: Space-Track

STARLINK-4655, 53613 is a payload satellite owned by SpaceX/Seattle (US) in LEO that was launched on Sun, 28 Aug 2022 UTC via an FALCON 9 launch vehicle from the Air Force Eastern Test Range (AFETR). Payload-class satellites include a variety of spacecraft equipped with specific instruments for various scientific and technological missions. These include communications satellites like Starlink; space stations such as the ISS; scientific satellites like the Hubble; Earth observation satellites from companies like Planet Labs, Umbra, and HawkEye 360; GPS; miniature CubeSats for education and research; and military/defense satellites.

Loading next visibility...
Identifier
53613, 2022-104AB
Orbit
LEO
Country
Flag of USUS
Related business
Manufacturer
SpaceX/Seattle
Mission
Operational Commercial Communications
Bus & Motor
STARLINK, Unknown motor
Mass
300 kg wet, ~290 kg dry
Launch date (UTC)
2022-08-28 (3 years ago)
Launch vehicle
FALCON 9
Launch site
Air Force Eastern Test Range (AFETR)
Object type
Payload
Rocket body
Debris
Shape & HBR
Box + 1 Pan, 4.4 m
Radar Cross Section
13.562 m², Large (>1 m²)

Expand to show TLE details & history
Last TLE update: 16 hours ago

TLE from 16 hours ago
0 STARLINK-4655
1 53613U 22104AB  25261.07330645  .00003233  00000-0  22119-3 0  9990
2 53613  53.2149 289.1788 0001499  85.6117 274.5047 15.08833267169578
Epoch: 2025-09-18T01:45Z
TLE epoch observation values (Epoch: 2025-09-18T01:45:33.677Z)
Latitude
0.00004°
Longitude
-94.45163°
Altitude
540.58 km
Speed
7.593 km/s
True Right ascension
19h 16m 42s
True Declination
0° 00' 00"
Sunlit
Object was in full shadow at epoch
Visualization orbit readout
Latitude
Unknown
Longitude
Unknown
Altitude
Unknown
Speed
Unknown
Apparent Right ascension
Unknown
Apparent Declination
Unknown
Sunlit
N/A
Visualization observer readout
Local Sidereal Time
10:29:08
Azimuth
Unknown
Elevation
Unknown
Doppler factor
Unknown
Orbital elements
Apogee altitude
541.046 km
Perigee altitude
538.972 km
Semi-major axis
6,918.146 km
Eccentricity
0.00015
Inclination
53.2149°
RAAN
289.1788°
Arg. of periapsis
85.6117°
True anomaly
274.48758°
Mean anomaly
274.5047°
Eccentric anomaly
274.49614°
Mean motion
3.77189 °/min
Orbital period
95.44 mins
BSTAR
0.00022119
Loading maneuver chart data...
Computing Atmospheric mass density...
Loading historical data...
Loading historical data...
Loading historical data...
Loading historical data...
Loading historical data...
Loading historical data...
Loading historical data...

Documentation

Showing up to 5 results
|